Total_Precipitation_Accumulation
1.80 1.69 1.27 0.72 0.54 0.39 0.33 0.35 0.34 0.29 0.32 0.37 0.40 0.38 0.40 0.39 0.38 0.38 0.35 0.32 0.33 0.47 0.66 0.75 0.80 1.04 1.22 1.31 1.41 1.50 1.60 1.69 1.82 1.83 1.81 1.78 1.61 1.43 1.28 1.17 1.08 1.02 1.00 1.01
1.57 1.19 0.72 0.53 0.51 0.45 0.41 0.41 0.39 0.32 0.29 0.38 0.40 0.36 0.32 0.29 0.35 0.38 0.36 0.35 0.37 0.44 0.55 0.65 0.71 0.81 0.99 1.12 1.29 1.42 1.52 1.68 1.71 1.71 1.81 1.93 1.99 1.82 1.56 1.41 1.29 1.18 1.15 1.14
1.18 0.74 0.57 0.64 0.60 0.56 0.44 0.36 0.32 0.33 0.35 0.39 0.38 0.37 0.28 0.27 0.34 0.37 0.37 0.37 0.35 0.37 0.43 0.50 0.58 0.73 0.87 0.98 1.15 1.37 1.50 1.66 1.71 1.75 1.97 2.11 2.22 2.06 1.77 1.43 1.27 1.26 1.29 1.29
1.04 0.64 0.61 0.72 0.57 0.48 0.45 0.25 0.24 0.27 0.41 0.46 0.37 0.50 0.33 0.31 0.35 0.38 0.40 0.38 0.34 0.33 0.37 0.41 0.49 0.60 0.72 0.87 1.01 1.13 1.30 1.50 1.68 1.75 1.80 1.85 1.91 1.87 1.65 1.54 1.45 1.47 1.48 1.47
0.98 0.68 0.68 0.73 0.50 0.41 0.39 0.25 0.28 0.30 0.39 0.44 0.32 0.46 0.38 0.23 0.27 0.35 0.42 0.43 0.40 0.38 0.39 0.41 0.49 0.58 0.64 0.76 0.98 1.07 1.15 1.34 1.55 1.68 1.74 1.85 1.81 1.80 1.88 1.83 1.72 1.63 1.59 1.56
0.73 0.60 0.71 0.61 0.46 0.42 0.40 0.39 0.44 0.42 0.54 0.57 0.26 0.37 0.39 0.27 0.28 0.30 0.32 0.38 0.42 0.43 0.50 0.53 0.58 0.59 0.59 0.64 0.84 1.05 1.08 1.17 1.31 1.53 1.72 1.78 1.70 1.73 1.77 1.76 1.72 1.70 1.70 1.66
0.97 0.73 0.59 0.52 0.62 0.55 0.49 0.60 0.85 0.88 0.78 0.43 0.19 0.29 0.36 0.27 0.29 0.29 0.29 0.32 0.39 0.47 0.51 0.57 0.60 0.55 0.54 0.58 0.70 0.88 1.00 1.11 1.17 1.32 1.48 1.62 1.69 1.68 1.70 1.71 1.68 1.61 1.54 1.47
0.93 0.99 0.61 0.49 0.58 0.60 0.46 0.45 0.58 0.57 0.36 0.24 0.21 0.30 0.32 0.27 0.25 0.22 0.23 0.27 0.33 0.39 0.42 0.46 0.53 0.55 0.55 0.55 0.60 0.66 0.72 0.81 0.88 0.96 1.08 1.21 1.40 1.49 1.45 1.49 1.51 1.48 1.41 1.40
0.54 0.61 0.40 0.34 0.34 0.38 0.49 0.41 0.26 0.43 0.35 0.32 0.25 0.23 0.24 0.21 0.21 0.21 0.23 0.28 0.34 0.40 0.43 0.44 0.51 0.53 0.56 0.58 0.61 0.61 0.61 0.66 0.76 0.79 0.84 0.88 1.03 1.16 1.20 1.26 1.25 1.19 1.19 1.26
0.30 0.40 0.33 0.29 0.34 0.35 0.34 0.32 0.39 0.64 0.55 0.41 0.23 0.20 0.30 0.25 0.20 0.22 0.27 0.29 0.33 0.43 0.42 0.42 0.47 0.50 0.53 0.57 0.60 0.59 0.58 0.60 0.70 0.77 0.81 0.81 0.84 0.90 1.02 1.11 1.05 1.03 1.05 1.08
0.23 0.35 0.37 0.34 0.35 0.29 0.24 0.31 0.35 0.42 0.37 0.37 0.23 0.26 0.29 0.27 0.23 0.24 0.27 0.30 0.38 0.43 0.43 0.43 0.46 0.50 0.54 0.59 0.59 0.56 0.59 0.60 0.63 0.67 0.68 0.69 0.71 0.76 0.82 0.90 0.93 0.92 0.96 0.95
0.14 0.25 0.31 0.24 0.14 0.13 0.20 0.19 0.24 0.43 0.30 0.22 0.23 0.28 0.26 0.24 0.22 0.23 0.25 0.28 0.34 0.37 0.41 0.40 0.42 0.47 0.52 0.53 0.49 0.48 0.53 0.55 0.60 0.62 0.60 0.60 0.62 0.65 0.68 0.72 0.77 0.79 0.83 0.85
0.17 0.25 0.34 0.33 0.26 0.25 0.27 0.16 0.17 0.34 0.48 0.34 0.28 0.29 0.24 0.20 0.18 0.19 0.20 0.22 0.26 0.29 0.29 0.29 0.31 0.33 0.34 0.35 0.35 0.39 0.43 0.41 0.43 0.45 0.44 0.46 0.48 0.52 0.58 0.61 0.62 0.64 0.70 0.75
0.36 0.30 0.27 0.31 0.30 0.38 0.35 0.17 0.17 0.50 0.65 0.27 0.16 0.22 0.20 0.18 0.19 0.20 0.20 0.19 0.19 0.20 0.21 0.22 0.23 0.22 0.24 0.26 0.29 0.31 0.30 0.31 0.34 0.34 0.33 0.35 0.38 0.42 0.46 0.49 0.47 0.48 0.52 0.58
0.36 0.34 0.20 0.23 0.29 0.45 0.38 0.22 0.20 0.34 0.27 0.26 0.15 0.16 0.18 0.19 0.22 0.23 0.21 0.17 0.15 0.14 0.14 0.17 0.18 0.18 0.19 0.21 0.22 0.22 0.24 0.31 0.35 0.37 0.35 0.34 0.35 0.37 0.39 0.41 0.41 0.40 0.41 0.42
0.32 0.35 0.27 0.30 0.28 0.38 0.31 0.15 0.13 0.15 0.12 0.13 0.11 0.15 0.15 0.19 0.23 0.26 0.23 0.17 0.11 0.10 0.10 0.11 0.12 0.13 0.14 0.16 0.19 0.23 0.27 0.36 0.42 0.44 0.39 0.35 0.34 0.34 0.32 0.31 0.31 0.32 0.33 0.34
0.35 0.44 0.58 0.48 0.24 0.28 0.25 0.14 0.13 0.12 0.09 0.09 0.14 0.14 0.13 0.21 0.25 0.23 0.17 0.11 0.08 0.07 0.07 0.07 0.08 0.10 0.12 0.17 0.24 0.31 0.36 0.44 0.46 0.49 0.44 0.37 0.34 0.33 0.30 0.27 0.28 0.30 0.33 0.36
0.22 0.41 0.66 0.60 0.38 0.37 0.24 0.17 0.15 0.12 0.09 0.06 0.08 0.07 0.09 0.13 0.15 0.13 0.10 0.09 0.06 0.04 0.04 0.04 0.05 0.06 0.08 0.13 0.22 0.30 0.37 0.48 0.51 0.50 0.48 0.46 0.45 0.45 0.47 0.47 0.48 0.49 0.49 0.50
0.08 0.28 0.49 0.43 0.32 0.17 0.09 0.10 0.12 0.13 0.10 0.05 0.05 0.05 0.04 0.06 0.12 0.17 0.14 0.10 0.07 0.04 0.03 0.03 0.03 0.04 0.05 0.08 0.14 0.23 0.35 0.50 0.61 0.67 0.65 0.65 0.67 0.71 0.75 0.77 0.77 0.77 0.79 0.78
0.04 0.13 0.31 0.29 0.24 0.10 0.04 0.02 0.03 0.05 0.09 0.03 0.02 0.02 0.02 0.04 0.10 0.16 0.17 0.13 0.11 0.09 0.07 0.05 0.05 0.06 0.09 0.12 0.18 0.30 0.47 0.61 0.71 0.74 0.77 0.81 0.85 0.90 0.87 0.86 0.82 0.75 0.71 0.70
0.10 0.17 0.24 0.23 0.21 0.04 0.01 0.00 0.01 0.06 0.08 0.02 0.01 0.01 0.01 0.02 0.05 0.06 0.11 0.15 0.14 0.15 0.17 0.17 0.18 0.20 0.22 0.25 0.34 0.47 0.58 0.67 0.70 0.70 0.71 0.73 0.72 0.72 0.69 0.66 0.63 0.58 0.53 0.47
0.04 0.08 0.09 0.11 0.16 0.06 0.01 0.01 0.02 0.04 0.02 0.01 0.01 0.01 0.02 0.02 0.02 0.03 0.04 0.08 0.12 0.16 0.22 0.29 0.34 0.37 0.37 0.40 0.46 0.52 0.54 0.54 0.52 0.49 0.47 0.44 0.39 0.35 0.34 0.34 0.34 0.33 0.31 0.27
0.04 0.05 0.05 0.06 0.07 0.03 0.01 0.01 0.02 0.02 0.02 0.02 0.01 0.01 0.02 0.02 0.02 0.02 0.02 0.03 0.05 0.07 0.09 0.14 0.20 0.24 0.25 0.25 0.27 0.29 0.26 0.23 0.19 0.16 0.14 0.13 0.10 0.09 0.09 0.08 0.09 0.11 0.14 0.15
0.06 0.03 0.03 0.04 0.04 0.02 0.02 0.02 0.02 0.02 0.02 0.02 0.03 0.03 0.03 0.03 0.03 0.03 0.02 0.02 0.03 0.03 0.03 0.04 0.06 0.07 0.07 0.08 0.08 0.09 0.07 0.05 0.04 0.03 0.03 0.03 0.03 0.03 0.04 0.04 0.05 0.06 0.07 0.09
0.08 0.06 0.05 0.05 0.03 0.02 0.02 0.02 0.02 0.02 0.02 0.02 0.02 0.02 0.03 0.04 0.04 0.04 0.04 0.03 0.03 0.03 0.03 0.04 0.04 0.04 0.04 0.04 0.05 0.05 0.05 0.04 0.04 0.03 0.03 0.03 0.04 0.04 0.04 0.04 0.05 0.06 0.07 0.09
0.05 0.05 0.08 0.07 0.03 0.03 0.02 0.01 0.01 0.01 0.01 0.02 0.02 0.02 0.03 0.03 0.04 0.04 0.04 0.04 0.04 0.05 0.04 0.04 0.04 0.05 0.06 0.06 0.07 0.07 0.08 0.08 0.07 0.07 0.07 0.07 0.07 0.07 0.08 0.08 0.08 0.10 0.11 0.13